Location: Newark
(50.0336°N, 22.0047°E)
Time: 14:40:15
(UTC+00:00)

Envisat - Pass Details

Date: 31 January 2020
Orbit: 764 x 766 km, 98.1° (Epoch: 28 February)

Event Time Altitude Azimuth Distance (km) Brightness Sun altitude
Rises 17:05:56 0° 193° (SSW) 3,221 6.5 -16.5°
Reaches altitude 10° 17:08:28 10° 204° (SSW) 2,300 5.9 -16.9°
Maximum altitude 17:12:56 31° 266° (W) 1,331 5.0 -17.6°
Drops below altitude 10° 17:17:26 10° 328° (NNW) 2,315 5.8 -18.3°
Sets 17:20:01 0° 339° (NNW) 3,246 6.5 -18.7°
